SL-16 DEB, 22496

Orbit data source: Space-Track

SL-16 DEB, 22496 is space debris in LEO originally from a launch on Fri, 25 Dec 1992 UTC launched from the Tyuratam Missile And Space Complex (TTMTR). Debris objects in space refer to the collection of defunct objects orbiting the Earth. Examples of debris include non-operational satellites, rocket bodies, and fragments generated from explosions, collisions, or faulty payload assembly.

Loading next visibility...
Identifier
22496, 1992-093GF
Orbit
LEO
Country
Flag of CISCIS
Related business
Manufacturer
Unknown
Mission
Spacecraft
Bus & Motor
Unknown
Mass
Unknown
Launch date (UTC)
1992-12-25 (33 years ago)
Launch vehicle
Unknown
Launch site
Tyuratam Missile And Space Complex (TTMTR)
Object type
Payload
Rocket body
Debris
Shape & HBR
Unknown shape, 0.1 m
Radar Cross Section
Small (<0.1 m²)

Expand to show TLE details & history
Last TLE update: 11 hours ago

TLE from 11 hours ago
0 SL-16 DEB
1 22496U 92093GF  26133.40898354  .00000068  00000-0  76420-4 0  9999
2 22496  71.2132 157.2599 0087494  85.9784 340.5409 13.97887816697962
Epoch: 2026-05-13T09:48Z
TLE epoch observation values (Epoch: 2026-05-13T09:48:56.177Z)
Latitude
60.11653°
Longitude
174.93112°
Altitude
850.821 km
Speed
7.464 km/s
True Right ascension
12h 53m 20s
True Declination
59° 58' 11"
Sunlit
Object was in daylight at epoch
Visualization orbit readout
Latitude
Unknown
Longitude
Unknown
Altitude
Unknown
Speed
Unknown
Apparent Right ascension
Unknown
Apparent Declination
Unknown
Sunlit
N/A
Visualization observer readout
Local Sidereal Time
04:57:33
Azimuth
Unknown
Elevation
Unknown
Doppler factor
Unknown
Orbital elements
Apogee altitude
962.71 km
Perigee altitude
835.368 km
Semi-major axis
7,277.176 km
Eccentricity
0.00875
Inclination
71.2132°
RAAN
157.2599°
Arg. of periapsis
85.9784°
True anomaly
340.20342°
Mean anomaly
340.5409°
Eccentric anomaly
340.37251°
Mean motion
3.49622 °/min
Orbital period
102.97 mins
BSTAR
0.00007642
Loading maneuver chart data...
Computing Atmospheric mass density...
Loading historical data...
Loading historical data...
Loading historical data...
Loading historical data...
Loading historical data...
Loading historical data...
Loading historical data...

Documentation

Showing up to 5 results
|